Flag for U.S.A. Weather past 2 weeks in Canton, Ohio, U.S.A.

Now
50 °F

Light rain. Fog.


Feels Like: 46 °F
Forecast: 47 / 52 °F
Wind: 9 mph from North

Location: Akron-Canton Regional Airport

Current Time: Oct 21, 2014 at 10:01:34 AM

Latest Report: Oct 21, 2014 at 8:51 AM


Visibility: 2 mi

Pressure: 29.90 "Hg

Humidity: 89%

Dew point: 47 °F

Location of CantonLocation

Historic Weather in Canton — Graph

°F

Canton temperature yesterday

Maximum temperature yesterday: 56 °F (at 2:51 PM)
Minimum temperature yesterday: 46 °F (at 1:51 AM)
Average temperature yesterday: 51 °F

Past Weeks' High & Low Weather Summary

 TemperatureHumidityPressure
High78 °F (Oct 14, 3:51 PM)94% (Oct 16, 1:03 AM)30.24 "Hg (Oct 16, 1:03 AM)
Low36 °F (Oct 12, 1:51 AM)39% (Oct 8, 3:51 PM)29.56 "Hg (Oct 17, 2:51 PM)
Average54 °F73%29.93 "Hg
* Reported Oct 6 8:51 AM — Oct 21 8:51 AM, Canton, Weather by CustomWeather, © 2014

Note: Actual official high and low records may vary slightly from our data, if they occured in-between our weather recording intervals... More about our weather records

Advertising

Canton weather history for previous 24 hours

 ConditionsComfort  
Time TempWeatherWind HumidityBarometerVisibility
8:51 AM
Oct 21
50 °FLight rain. Fog.9 mph89%29.90 "Hg2 mi
7:51 AM51 °FLight rain. Fog.7 mph86%29.88 "Hg2 mi
6:51 AM51 °FRain. Fog.6 mph86%29.86 "Hg3 mi
5:51 AM52 °FHeavy rain. Fog.9 mph89%29.85 "Hg1 mi
4:51 AM52 °FFog.7 mph89%29.84 "Hg2 mi
3:51 AM52 °FFog.6 mph89%29.84 "Hg2 mi
2:51 AM52 °FFog.5 mph89%29.84 "Hg3 mi
1:51 AM52 °FFog.6 mph89%29.84 "Hg3 mi
12:51 AM51 °FFog.5 mph89%29.85 "Hg3 mi
11:51 PM
Oct 20
51 °FLight rain. Fog.8 mph89%29.86 "Hg4 mi
10:51 PM51 °FLight rain. Fog.8 mph89%29.86 "Hg6 mi
9:51 PM51 °FLight rain. Fog.8 mph89%29.87 "Hg4 mi
8:51 PM52 °FOvercast.7 mph86%29.87 "Hg8 mi
7:51 PM52 °FMostly cloudy.9 mph83%29.87 "Hg9 mi
6:51 PM52 °FLight rain. Mostly cloudy.8 mph83%29.85 "Hg10 mi
5:51 PM53 °FLight rain. Mostly cloudy.12 mph77%29.85 "Hg9 mi
4:51 PM56 °FMostly cloudy.15 mph65%29.85 "Hg10 mi
3:51 PM56 °FMostly cloudy.13 mph65%29.85 "Hg10 mi
2:51 PM56 °FOvercast.12 mph62%29.87 "Hg10 mi
1:51 PM55 °FMore clouds than sun.12 mph64%29.88 "Hg10 mi
12:51 PM55 °FOvercast.13 mph64%29.90 "Hg10 mi
11:51 AM54 °FMostly cloudy.14 mph64%29.92 "Hg10 mi
10:51 AM51 °FOvercast.14 mph66%29.95 "Hg10 mi
Weather by CustomWeather, © 2014

See weather overviewHow to use our weather pages